{"data":{"norad_id":65646,"intl_designator":"2025-210AA","name":"STARLINK-35183","alt_names":[],"object_type":"PAYLOAD","status":"ACTIVE","operator":null,"country":"US","launch_date":"2025-09-18","launch_site_code":"AFETR","launch_vehicle":null,"mission":null,"orbit_class":"UNKNOWN","rcs_meters":null,"size_class":null,"mass_kg":null,"dimensions":null,"purposes":["comms"],"wikipedia_slug":null,"has_3d_model":false,"image_url":null,"decayed_at":null,"tle_current":{"epoch":"2026-09-20T22:43:13.435392Z","epoch_age_seconds":70195,"freshness":"FRESH","line1":"1 65646U 25210AA  26263.94668328  .00017118  00000+0  51639-3 0  9996","line2":"2 65646  53.1662 119.5771 0001314 303.2424  56.8452 15.34413336 57634","mean_motion":15.34413336,"eccentricity":0.0001314,"inclination_deg":53.1662,"raan_deg":119.5771,"arg_perigee_deg":303.2424,"mean_anomaly_deg":56.8452,"bstar":0.00051639,"rev_number":5763,"period_min":93.846942425167,"perigee_km":461.76472189251,"apogee_km":463.562484291,"semimajor_km":6840.8006030918,"source":"CELESTRAK","updated_at":"2026-09-21T09:00:35.677844Z"}}}